DLH19L LIMC-EDDM

Flight info

Callsign DLH19L
Flight time 0h 48m
Altitude 18000
Route SRN6LXOSKOR6S/35R OSKOR M985 TAGIP T876 GUNGO Y246 TISAX T102 IVKAL/N0365F220 T102 NINUR T101 ANDEC/N0359F210 T101 BETOS BETOS26
Aircraft A321/M-SDE3FGHIJ1J5J6J7M1RWXY/LB1

Departure

Time 2026-05-05 20:07
Airport Milan Malpensa International Airport (LIMC)

Arrival

Time 2026-05-05 20:55
Airport Munich Airport (EDDM)
Time Latitude Longitude Altitude Speed Heading
2026-05-05 19:08 45.62458 8.71772 732 ft 0 kts 258°
2026-05-05 19:50 45.62459 8.71781 732 ft 3 kts 258°
2026-05-05 19:51 45.62465 8.71814 731 ft 3 kts 253°
2026-05-05 19:51 45.62473 8.71847 731 ft 3 kts 240°
2026-05-05 19:51 45.62487 8.71871 731 ft 3 kts 200°
2026-05-05 19:51 45.62498 8.71874 731 ft 0 kts 169°
2026-05-05 19:52 45.62477 8.71880 730 ft 1 kts 169°
2026-05-05 19:52 45.62476 8.71880 730 ft 0 kts 169°
2026-05-05 19:54 45.62473 8.71881 732 ft 2 kts 169°
2026-05-05 19:55 45.62458 8.71885 732 ft 5 kts 169°
2026-05-05 19:55 45.62390 8.71904 731 ft 13 kts 168°
2026-05-05 19:55 45.62350 8.72008 730 ft 14 kts 79°
2026-05-05 19:55 45.62325 8.72119 729 ft 13 kts 161°
2026-05-05 19:56 45.62225 8.72151 727 ft 17 kts 168°
2026-05-05 19:56 45.62100 8.72185 726 ft 20 kts 170°
2026-05-05 19:56 45.61956 8.72221 723 ft 22 kts 168°
2026-05-05 19:56 45.61795 8.72269 719 ft 25 kts 168°
2026-05-05 19:57 45.61617 8.72316 716 ft 27 kts 170°
2026-05-05 19:57 45.61471 8.72356 714 ft 13 kts 169°
2026-05-05 19:57 45.61391 8.72317 713 ft 15 kts 247°
2026-05-05 19:57 45.61349 8.72192 711 ft 13 kts 189°
2026-05-05 19:58 45.61239 8.72223 702 ft 17 kts 169°
2026-05-05 19:58 45.61118 8.72255 699 ft 20 kts 169°
2026-05-05 19:58 45.60976 8.72293 701 ft 22 kts 169°
2026-05-05 19:58 45.60819 8.72337 701 ft 24 kts 168°
2026-05-05 19:59 45.60677 8.72394 698 ft 20 kts 147°
2026-05-05 19:59 45.60633 8.72574 704 ft 20 kts 97°
2026-05-05 19:59 45.60618 8.72782 704 ft 22 kts 95°
2026-05-05 19:59 45.60600 8.73001 704 ft 23 kts 96°
2026-05-05 20:00 45.60589 8.73163 701 ft 10 kts 90°
2026-05-05 20:00 45.60620 8.73253 699 ft 11 kts 44°
2026-05-05 20:00 45.60693 8.73308 704 ft 13 kts 21°
2026-05-05 20:00 45.60800 8.73369 694 ft 20 kts 22°
2026-05-05 20:01 45.60949 8.73398 700 ft 23 kts 349°
2026-05-05 20:01 45.61107 8.73354 699 ft 23 kts 348°
2026-05-05 20:01 45.61266 8.73310 697 ft 24 kts 349°
2026-05-05 20:01 45.61430 8.73262 701 ft 24 kts 348°
2026-05-05 20:02 45.61552 8.73227 706 ft 10 kts 349°
2026-05-05 20:02 45.61613 8.73249 712 ft 10 kts 57°
2026-05-05 20:02 45.61625 8.73315 701 ft 0 kts 78°
2026-05-05 20:02 45.61625 8.73316 701 ft 1 kts 78°
2026-05-05 20:03 45.61631 8.73355 708 ft 8 kts 78°
2026-05-05 20:03 45.61632 8.73428 704 ft 0 kts 112°
2026-05-05 20:05 45.61624 8.73454 704 ft 7 kts 114°
2026-05-05 20:05 45.61589 8.73554 697 ft 14 kts 106°
2026-05-05 20:05 45.61590 8.73701 703 ft 10 kts 90°
2026-05-05 20:05 45.61639 8.73735 704 ft 9 kts 348°
2026-05-05 20:06 45.61720 8.73711 698 ft 20 kts 348°
2026-05-05 20:06 45.62051 8.73618 717 ft 86 kts 349°
2026-05-05 20:06 45.62875 8.73390 731 ft 153 kts 349°
2026-05-05 20:06 45.63633 8.73185 915 ft 173 kts 349°
2026-05-05 20:07 45.65228 8.73087 2010 ft 173 kts 24°
2026-05-05 20:07 45.66154 8.74128 2813 ft 171 kts 57°
2026-05-05 20:07 45.66624 8.75673 3616 ft 170 kts 72°
2026-05-05 20:07 45.67259 8.77093 4253 ft 180 kts 46°
2026-05-05 20:08 45.68316 8.78364 4630 ft 203 kts 40°
2026-05-05 20:08 45.69420 8.79662 5038 ft 218 kts 40°
2026-05-05 20:08 45.70606 8.81059 5765 ft 222 kts 40°
2026-05-05 20:08 45.71923 8.82652 6560 ft 231 kts 46°
2026-05-05 20:09 45.72632 8.84481 6937 ft 243 kts 83°
2026-05-05 20:09 45.72414 8.86849 7564 ft 244 kts 118°
2026-05-05 20:09 45.71444 8.88915 8069 ft 260 kts 128°
2026-05-05 20:09 45.70666 8.91355 8460 ft 280 kts 107°
2026-05-05 20:10 45.70224 8.94100 8983 ft 286 kts 104°
2026-05-05 20:10 45.69820 8.96900 9521 ft 289 kts 104°
2026-05-05 20:10 45.69418 8.99743 9913 ft 294 kts 104°
2026-05-05 20:10 45.69009 9.02653 9982 ft 295 kts 104°
2026-05-05 20:11 45.68606 9.05524 9989 ft 296 kts 104°
2026-05-05 20:11 45.68194 9.08453 9988 ft 296 kts 104°
2026-05-05 20:11 45.67927 9.10354 9992 ft 296 kts 104°
2026-05-05 20:11 45.67348 9.14456 10000 ft 323 kts 104°
2026-05-05 20:12 45.67004 9.16859 9994 ft 328 kts 103°
2026-05-05 20:12 45.66559 9.19952 9996 ft 329 kts 104°
2026-05-05 20:12 45.66102 9.23149 9995 ft 330 kts 103°
2026-05-05 20:12 45.65959 9.26502 10352 ft 338 kts 92°
2026-05-05 20:13 45.65943 9.29900 11025 ft 343 kts 92°
2026-05-05 20:13 45.65904 9.33341 11690 ft 347 kts 93°
2026-05-05 20:13 45.65857 9.36811 12350 ft 352 kts 93°
2026-05-05 20:13 45.65809 9.40323 13106 ft 357 kts 93°
2026-05-05 20:14 45.65766 9.43901 13759 ft 361 kts 93°
2026-05-05 20:14 45.65729 9.47505 14355 ft 366 kts 93°
2026-05-05 20:14 45.65695 9.51165 14942 ft 370 kts 93°
2026-05-05 20:14 45.65661 9.54871 15432 ft 374 kts 93°
2026-05-05 20:15 45.65625 9.58609 16020 ft 379 kts 94°
2026-05-05 20:15 45.65583 9.62386 16618 ft 383 kts 94°
2026-05-05 20:15 45.65537 9.66216 17212 ft 387 kts 94°
2026-05-05 20:15 45.65489 9.70049 17791 ft 391 kts 94°
2026-05-05 20:16 45.65439 9.73978 18359 ft 395 kts 94°
2026-05-05 20:16 45.65390 9.77928 18852 ft 399 kts 95°
2026-05-05 20:16 45.65342 9.81910 19338 ft 402 kts 95°
2026-05-05 20:16 45.65292 9.85918 19810 ft 407 kts 95°
2026-05-05 20:17 45.65236 9.89980 20324 ft 410 kts 95°
2026-05-05 20:17 45.65176 9.94073 20824 ft 414 kts 96°
2026-05-05 20:17 45.65114 9.98326 21361 ft 416 kts 96°
2026-05-05 20:17 45.65053 10.02405 21827 ft 419 kts 96°
2026-05-05 20:18 45.65013 10.06577 21978 ft 420 kts 91°
2026-05-05 20:18 45.65463 10.10663 21994 ft 415 kts 77°
2026-05-05 20:18 45.66529 10.14495 21992 ft 416 kts 64°
2026-05-05 20:18 45.68066 10.17932 21996 ft 417 kts 54°
2026-05-05 20:19 45.69782 10.21287 21993 ft 418 kts 55°
2026-05-05 20:19 45.71472 10.24663 21998 ft 418 kts 56°
2026-05-05 20:19 45.73152 10.28053 22006 ft 418 kts 56°
2026-05-05 20:19 45.74827 10.31448 22008 ft 417 kts 56°
2026-05-05 20:20 45.76502 10.34847 22005 ft 417 kts 56°
2026-05-05 20:20 45.78176 10.38238 22008 ft 417 kts 56°
2026-05-05 20:20 45.79856 10.41625 22012 ft 417 kts 56°
2026-05-05 20:20 45.81538 10.45010 22001 ft 417 kts 56°
2026-05-05 20:21 45.83215 10.48395 21996 ft 417 kts 56°
2026-05-05 20:21 45.84894 10.51790 22008 ft 417 kts 56°
2026-05-05 20:21 45.86548 10.55138 21998 ft 417 kts 56°
2026-05-05 20:21 45.88226 10.58534 22016 ft 417 kts 56°
2026-05-05 20:22 45.89898 10.61925 22012 ft 417 kts 56°
2026-05-05 20:22 45.91587 10.65311 22013 ft 417 kts 52°
2026-05-05 20:22 45.93563 10.68356 22009 ft 418 kts 41°
2026-05-05 20:22 45.95873 10.70872 22006 ft 416 kts 30°
2026-05-05 20:23 45.98410 10.72868 21997 ft 414 kts 26°
2026-05-05 20:23 46.00959 10.74805 21964 ft 415 kts 26°
2026-05-05 20:23 46.03499 10.76756 21983 ft 414 kts 26°
2026-05-05 20:23 46.06038 10.78714 22003 ft 414 kts 26°
2026-05-05 20:24 46.08546 10.80651 22009 ft 414 kts 26°
2026-05-05 20:24 46.11084 10.82612 22039 ft 414 kts 26°
2026-05-05 20:24 46.13623 10.84574 22043 ft 414 kts 26°
2026-05-05 20:24 46.16156 10.86531 22030 ft 412 kts 26°
2026-05-05 20:25 46.18683 10.88483 22041 ft 412 kts 26°
2026-05-05 20:25 46.21207 10.90437 22036 ft 412 kts 26°
2026-05-05 20:25 46.23726 10.92391 22034 ft 411 kts 26°
2026-05-05 20:25 46.26246 10.94348 22038 ft 411 kts 26°
2026-05-05 20:26 46.28768 10.96310 22050 ft 411 kts 26°
2026-05-05 20:26 46.31247 10.98243 22046 ft 410 kts 26°
2026-05-05 20:26 46.33793 11.00228 22047 ft 410 kts 26°
2026-05-05 20:26 46.36311 11.02191 22052 ft 411 kts 26°
2026-05-05 20:27 46.38834 11.04131 22055 ft 410 kts 22°
2026-05-05 20:27 46.41496 11.05597 21999 ft 407 kts 12°
2026-05-05 20:27 46.44257 11.06363 22002 ft 402 kts
2026-05-05 20:27 46.47039 11.06484 22002 ft 399 kts 355°
2026-05-05 20:28 46.49824 11.06473 21997 ft 399 kts 355°
2026-05-05 20:28 46.52603 11.06474 21995 ft 400 kts 355°
2026-05-05 20:28 46.55344 11.06483 21993 ft 399 kts 356°
2026-05-05 20:28 46.58161 11.06495 21987 ft 399 kts 355°
2026-05-05 20:29 46.60934 11.06505 21982 ft 399 kts 355°
2026-05-05 20:29 46.63671 11.06507 21987 ft 398 kts 354°
2026-05-05 20:29 46.66413 11.06163 21988 ft 395 kts 347°
2026-05-05 20:29 46.69135 11.05644 21982 ft 394 kts 348°
2026-05-05 20:30 46.71865 11.05128 21984 ft 395 kts 348°
2026-05-05 20:30 46.74586 11.04620 21980 ft 394 kts 348°
2026-05-05 20:30 46.77312 11.04116 21961 ft 394 kts 348°
2026-05-05 20:30 46.80032 11.03617 21978 ft 395 kts 348°
2026-05-05 20:31 46.82765 11.03107 21965 ft 395 kts 348°
2026-05-05 20:31 46.85451 11.02600 21950 ft 396 kts 348°
2026-05-05 20:31 46.88225 11.02070 21947 ft 396 kts 348°
2026-05-05 20:31 46.90951 11.01548 21944 ft 396 kts 348°
2026-05-05 20:32 46.93687 11.01072 21944 ft 398 kts 352°
2026-05-05 20:32 46.96472 11.01149 21933 ft 402 kts
2026-05-05 20:32 46.99224 11.01567 21932 ft 403 kts
2026-05-05 20:32 47.02016 11.01995 21938 ft 404 kts
2026-05-05 20:33 47.04805 11.02425 21920 ft 403 kts
2026-05-05 20:33 47.07591 11.02857 21925 ft 402 kts
2026-05-05 20:33 47.10375 11.03285 21908 ft 402 kts
2026-05-05 20:33 47.13159 11.03704 21901 ft 402 kts
2026-05-05 20:34 47.15944 11.04119 21905 ft 403 kts
2026-05-05 20:34 47.18736 11.04537 21887 ft 402 kts
2026-05-05 20:34 47.21516 11.04960 21886 ft 401 kts
2026-05-05 20:34 47.24252 11.05382 21882 ft 402 kts
2026-05-05 20:35 47.27037 11.05805 21874 ft 402 kts
2026-05-05 20:35 47.29819 11.06235 21884 ft 402 kts
2026-05-05 20:35 47.32605 11.06664 21890 ft 402 kts
2026-05-05 20:35 47.35388 11.07091 21892 ft 402 kts
2026-05-05 20:36 47.38173 11.07514 21893 ft 402 kts
2026-05-05 20:36 47.40958 11.07935 21892 ft 401 kts
2026-05-05 20:36 47.43730 11.08360 21890 ft 401 kts
2026-05-05 20:36 47.46485 11.08784 21887 ft 401 kts
2026-05-05 20:37 47.49274 11.09214 21883 ft 400 kts
2026-05-05 20:37 47.52006 11.09635 21881 ft 399 kts
2026-05-05 20:37 47.54834 11.10187 21879 ft 401 kts
2026-05-05 20:37 47.57522 11.11369 21879 ft 404 kts 16°
2026-05-05 20:38 47.60192 11.12658 21883 ft 404 kts 15°
2026-05-05 20:38 47.62907 11.13947 21878 ft 404 kts 15°
2026-05-05 20:38 47.65545 11.15191 21876 ft 403 kts 15°
2026-05-05 20:38 47.68254 11.16468 21884 ft 404 kts 15°
2026-05-05 20:39 47.70932 11.17731 21890 ft 403 kts 15°
2026-05-05 20:39 47.73605 11.19001 21892 ft 403 kts 15°
2026-05-05 20:39 47.76234 11.20258 21892 ft 403 kts 15°
2026-05-05 20:39 47.78896 11.21535 21891 ft 403 kts 15°
2026-05-05 20:40 47.81626 11.22838 21898 ft 420 kts 15°
2026-05-05 20:40 47.84463 11.24194 21895 ft 437 kts 16°
2026-05-05 20:40 47.87402 11.25604 21886 ft 452 kts 16°
2026-05-05 20:40 47.90443 11.27068 21888 ft 466 kts 17°
2026-05-05 20:41 47.93611 11.28599 21888 ft 479 kts 17°
2026-05-05 20:41 47.96776 11.30130 21891 ft 489 kts 17°
2026-05-05 20:41 48.00064 11.31722 21893 ft 492 kts 17°
2026-05-05 20:41 48.03324 11.33328 21891 ft 493 kts 19°
2026-05-05 20:42 48.06453 11.35398 21892 ft 494 kts 27°
2026-05-05 20:42 48.09367 11.38120 21900 ft 494 kts 36°
2026-05-05 20:42 48.12061 11.41316 21891 ft 494 kts 39°
2026-05-05 20:42 48.14734 11.44542 21889 ft 494 kts 39°
2026-05-05 20:43 48.17430 11.47786 21541 ft 488 kts 39°
2026-05-05 20:43 48.19952 11.51288 20434 ft 485 kts 49°
2026-05-05 20:43 48.21958 11.55294 19530 ft 478 kts 59°
2026-05-05 20:43 48.23455 11.59687 18696 ft 470 kts 69°
2026-05-05 20:44 48.24420 11.64309 17823 ft 461 kts 79°
2026-05-05 20:44 48.24880 11.69004 17077 ft 449 kts 85°
2026-05-05 20:44 48.25236 11.73617 16222 ft 442 kts 85°
2026-05-05 20:44 48.25591 11.78172 15395 ft 436 kts 85°
2026-05-05 20:45 48.26284 11.87086 13879 ft 424 kts 85°
2026-05-05 20:45 48.26614 11.91407 13410 ft 411 kts 85°
2026-05-05 20:45 48.26932 11.95604 12931 ft 398 kts 85°
2026-05-05 20:46 48.27236 11.99632 12517 ft 376 kts 85°
2026-05-05 20:46 48.27426 12.02140 12256 ft 354 kts 85°
2026-05-05 20:46 48.27704 12.05819 11861 ft 327 kts 85°
2026-05-05 20:46 48.27948 12.09073 11480 ft 316 kts 85°
2026-05-05 20:47 48.28182 12.12272 10928 ft 308 kts 85°
2026-05-05 20:47 48.28413 12.15458 10322 ft 306 kts 85°
2026-05-05 20:47 48.28643 12.18613 9757 ft 303 kts 85°
2026-05-05 20:47 48.28871 12.21720 9550 ft 286 kts 85°
2026-05-05 20:48 48.29221 12.24578 9326 ft 273 kts 68°
2026-05-05 20:48 48.30259 12.26869 8917 ft 266 kts 39°
2026-05-05 20:48 48.31865 12.28122 8451 ft 258 kts
2026-05-05 20:48 48.33633 12.28241 7972 ft 253 kts 353°
2026-05-05 20:49 48.35334 12.27806 7497 ft 245 kts 332°
2026-05-05 20:49 48.36669 12.26340 7052 ft 235 kts 306°
2026-05-05 20:49 48.37438 12.24209 6662 ft 231 kts 284°
2026-05-05 20:49 48.37573 12.21835 6340 ft 228 kts 263°
2026-05-05 20:50 48.37367 12.19472 5975 ft 228 kts 263°
2026-05-05 20:50 48.37205 12.17105 5652 ft 227 kts 264°
2026-05-05 20:50 48.37041 12.14760 5355 ft 224 kts 264°
2026-05-05 20:50 48.36872 12.12448 5067 ft 222 kts 264°
2026-05-05 20:51 48.36701 12.10119 5002 ft 220 kts 264°
2026-05-05 20:51 48.36532 12.07824 4954 ft 222 kts 264°
2026-05-05 20:51 48.36364 12.05556 4742 ft 220 kts 263°
2026-05-05 20:51 48.36196 12.03285 4470 ft 217 kts 264°
2026-05-05 20:52 48.36031 12.01070 4187 ft 209 kts 264°
2026-05-05 20:52 48.35872 11.98933 3907 ft 202 kts 264°
2026-05-05 20:52 48.35718 11.96875 3654 ft 194 kts 264°
2026-05-05 20:52 48.35571 11.94918 3407 ft 181 kts 264°
2026-05-05 20:53 48.35439 11.93166 3183 ft 158 kts 264°
2026-05-05 20:53 48.35320 11.91586 2975 ft 142 kts 264°
2026-05-05 20:53 48.35212 11.90142 2788 ft 137 kts 263°
2026-05-05 20:53 48.35105 11.88731 2606 ft 135 kts 264°
2026-05-05 20:54 48.34998 11.87183 2403 ft 136 kts 263°
2026-05-05 20:54 48.34834 11.85610 2141 ft 136 kts 262°
2026-05-05 20:54 48.34744 11.84357 1963 ft 136 kts 264°
2026-05-05 20:54 48.34665 11.82943 1784 ft 136 kts 262°
2026-05-05 20:55 48.34543 11.81500 1613 ft 136 kts 264°
2026-05-05 20:55 48.34449 11.80084 1497 ft 135 kts 263°
2026-05-05 20:55 48.34353 11.78827 1465 ft 104 kts 263°
2026-05-05 20:55 48.34297 11.78081 1466 ft 35 kts 267°
2026-05-05 20:56 48.34339 11.77938 1461 ft 13 kts 288°
2026-05-05 20:56 48.34373 11.77804 1465 ft 14 kts 291°
2026-05-05 20:56 48.34418 11.77652 1462 ft 17 kts 294°
2026-05-05 20:56 48.34467 11.77488 1463 ft 15 kts 303°
2026-05-05 20:57 48.34567 11.77429 1457 ft 17 kts 352°
2026-05-05 20:57 48.34627 11.77504 1458 ft 11 kts 80°
2026-05-05 20:57 48.34642 11.77631 1461 ft 13 kts 82°
2026-05-05 20:57 48.34654 11.77778 1462 ft 15 kts 83°
2026-05-05 20:58 48.34667 11.77946 1466 ft 17 kts 83°
2026-05-05 20:58 48.34681 11.78134 1466 ft 19 kts 83°
2026-05-05 20:58 48.34696 11.78342 1458 ft 21 kts 83°
2026-05-05 20:58 48.34713 11.78565 1465 ft 22 kts 83°
2026-05-05 20:59 48.34731 11.78800 1467 ft 24 kts 84°
2026-05-05 20:59 48.34750 11.79053 1465 ft 25 kts 83°
2026-05-05 20:59 48.34771 11.79320 1461 ft 27 kts 83°
2026-05-05 20:59 48.34785 11.79502 1461 ft 11 kts 83°
2026-05-05 21:00 48.34837 11.79563 1464 ft 11 kts 356°
2026-05-05 21:00 48.34915 11.79548 1465 ft 12 kts 353°
2026-05-05 21:00 48.35008 11.79531 1465 ft 14 kts 353°
2026-05-05 21:00 48.35089 11.79589 1463 ft 15 kts 79°
2026-05-05 21:01 48.35101 11.79752 1462 ft 17 kts 83°
2026-05-05 21:01 48.35114 11.79925 1461 ft 12 kts 83°
2026-05-05 21:01 48.35124 11.80053 1465 ft 9 kts 83°
2026-05-05 21:01 48.35120 11.80160 1464 ft 11 kts 100°
2026-05-05 21:02 48.35107 11.80287 1467 ft 13 kts 92°
2026-05-05 21:02 48.35116 11.80409 1464 ft 12 kts 78°
2026-05-05 21:02 48.35174 11.80415 1464 ft 11 kts 309°
2026-05-05 21:02 48.35180 11.80379 1464 ft 5 kts 274°
2026-05-05 21:03 48.35177 11.80309 1467 ft 8 kts 265°
2026-05-05 21:03 48.35178 11.80218 1467 ft 9 kts 296°
2026-05-05 21:03 48.35232 11.80192 1465 ft 5 kts 29°
2026-05-05 21:03 48.35245 11.80241 1467 ft 6 kts 84°
2026-05-05 21:04 48.35249 11.80299 1467 ft 4 kts 86°
2026-05-05 21:04 48.35250 11.80305 1467 ft 0 kts 85°